Time,TemperatureF,DewpointF,PressureIn,WindDirection,WindDirectionDegrees,WindSpeedMPH,WindSpeedGustMPH,Humidity,HourlyPrecipIn,Conditions,Clouds,dailyrainin,SoftwareType,DateUTC
2013-10-08 00:01:00,63.6,41.0,28.67,ENE,67,0.0,1.0,44,0.00,,,0.00,Rainwise IP-100,2013-10-08 05:01:00,
2013-10-08 00:06:00,63.3,41.0,28.67,East,90,0.0,2.0,44,0.00,,,0.00,Rainwise IP-100,2013-10-08 05:06:00,
2013-10-08 00:11:00,63.3,41.0,28.67,East,90,1.4,1.4,45,0.00,,,0.00,Rainwise IP-100,2013-10-08 05:11:00,
2013-10-08 00:16:00,63.3,41.0,28.67,East,90,0.0,2.0,45,0.00,,,0.00,Rainwise IP-100,2013-10-08 05:16:00,
2013-10-08 00:21:00,63.2,41.0,28.67,East,90,2.3,2.3,45,0.00,,,0.00,Rainwise IP-100,2013-10-08 05:21:00,
2013-10-08 00:26:00,63.1,41.0,28.67,East,90,2.3,3.0,45,0.00,,,0.00,Rainwise IP-100,2013-10-08 05:26:00,
2013-10-08 00:31:00,63.0,41.0,28.67,East,90,0.0,2.0,45,0.00,,,0.00,Rainwise IP-100,2013-10-08 05:31:00,
2013-10-08 00:36:00,62.6,41.0,28.66,East,90,1.2,2.0,45,0.00,,,0.00,Rainwise IP-100,2013-10-08 05:36:00,
2013-10-08 00:41:00,62.4,41.0,28.66,East,90,0.0,1.0,45,0.00,,,0.00,Rainwise IP-100,2013-10-08 05:41:00,
2013-10-08 00:46:00,62.4,41.0,28.66,East,90,1.2,1.2,46,0.00,,,0.00,Rainwise IP-100,2013-10-08 05:46:00,
2013-10-08 00:51:00,62.3,41.0,28.66,East,90,0.0,1.0,46,0.00,,,0.00,Rainwise IP-100,2013-10-08 05:51:00,
2013-10-08 00:53:00,62.2,41.0,28.66,East,90,1.2,1.2,46,0.00,,,0.00,Rainwise IP-100,2013-10-08 05:53:00,
2013-10-08 00:58:00,62.0,41.0,28.66,ESE,112,0.0,3.0,46,0.00,,,0.00,Rainwise IP-100,2013-10-08 05:58:00,
2013-10-08 01:03:00,61.9,41.0,28.66,ESE,112,0.0,1.0,46,0.00,,,0.00,Rainwise IP-100,2013-10-08 06:03:00,
2013-10-08 01:08:00,61.8,41.0,28.66,ESE,112,0.0,0.0,47,0.00,,,0.00,Rainwise IP-100,2013-10-08 06:08:00,
2013-10-08 01:13:00,61.6,41.0,28.66,ESE,112,0.0,1.0,47,0.00,,,0.00,Rainwise IP-100,2013-10-08 06:13:00,
2013-10-08 01:18:00,61.4,41.0,28.66,ESE,112,0.0,1.0,47,0.00,,,0.00,Rainwise IP-100,2013-10-08 06:18:00,
2013-10-08 01:23:00,61.3,40.0,28.66,ESE,112,1.2,1.2,47,0.00,,,0.00,Rainwise IP-100,2013-10-08 06:23:00,
2013-10-08 01:28:00,61.1,40.0,28.67,ESE,112,0.0,1.0,47,0.00,,,0.00,Rainwise IP-100,2013-10-08 06:28:00,
2013-10-08 01:33:00,60.9,41.0,28.66,ESE,112,1.2,2.0,48,0.00,,,0.00,Rainwise IP-100,2013-10-08 06:33:00,
2013-10-08 01:38:00,61.0,41.0,28.66,ESE,112,1.2,3.0,48,0.00,,,0.00,Rainwise IP-100,2013-10-08 06:38:00,
2013-10-08 01:43:00,61.1,41.0,28.66,ESE,112,1.6,3.0,48,0.00,,,0.00,Rainwise IP-100,2013-10-08 06:43:00,
2013-10-08 01:48:00,61.0,41.0,28.66,ESE,112,1.4,2.0,48,0.00,,,0.00,Rainwise IP-100,2013-10-08 06:48:00,
2013-10-08 01:53:00,61.0,41.0,28.66,ESE,112,0.0,2.0,48,0.00,,,0.00,Rainwise IP-100,2013-10-08 06:53:00,
2013-10-08 01:58:00,61.0,41.0,28.67,ESE,112,0.0,2.0,48,0.00,,,0.00,Rainwise IP-100,2013-10-08 06:58:00,
2013-10-08 02:03:00,60.8,40.0,28.67,ESE,112,1.2,2.0,48,0.00,,,0.00,Rainwise IP-100,2013-10-08 07:03:00,
2013-10-08 02:08:00,60.7,40.0,28.67,ESE,112,1.4,1.4,48,0.00,,,0.00,Rainwise IP-100,2013-10-08 07:08:00,
2013-10-08 02:13:00,60.8,41.0,28.66,ESE,112,1.6,3.0,49,0.00,,,0.00,Rainwise IP-100,2013-10-08 07:13:00,
2013-10-08 02:18:00,60.8,41.0,28.66,ESE,112,1.6,2.0,49,0.00,,,0.00,Rainwise IP-100,2013-10-08 07:18:00,
2013-10-08 02:23:00,60.8,41.0,28.66,ESE,112,1.6,2.0,49,0.00,,,0.00,Rainwise IP-100,2013-10-08 07:23:00,
2013-10-08 02:28:00,60.8,41.0,28.66,ESE,112,0.0,2.0,49,0.00,,,0.00,Rainwise IP-100,2013-10-08 07:28:00,
2013-10-08 02:33:00,60.6,41.0,28.66,ESE,112,0.0,2.0,49,0.00,,,0.00,Rainwise IP-100,2013-10-08 07:33:00,
2013-10-08 02:38:00,60.7,41.0,28.66,ESE,112,1.6,3.0,49,0.00,,,0.00,Rainwise IP-100,2013-10-08 07:38:00,
2013-10-08 02:43:00,60.9,41.0,28.66,ESE,112,1.6,3.0,49,0.00,,,0.00,Rainwise IP-100,2013-10-08 07:43:00,
2013-10-08 02:48:00,61.1,41.0,28.66,ESE,112,2.1,3.0,48,0.00,,,0.00,Rainwise IP-100,2013-10-08 07:48:00,
2013-10-08 02:53:00,61.2,41.0,28.66,East,90,2.6,4.0,48,0.00,,,0.00,Rainwise IP-100,2013-10-08 07:53:00,
2013-10-08 02:58:00,61.3,41.0,28.66,East,90,1.4,3.0,48,0.00,,,0.00,Rainwise IP-100,2013-10-08 07:58:00,
2013-10-08 03:03:00,61.1,41.0,28.66,East,90,1.6,2.0,48,0.00,,,0.00,Rainwise IP-100,2013-10-08 08:03:00,
2013-10-08 03:08:00,60.9,41.0,28.66,East,90,3.0,3.0,48,0.00,,,0.00,Rainwise IP-100,2013-10-08 08:08:00,
2013-10-08 03:13:00,61.0,41.0,28.66,East,90,1.6,3.0,48,0.00,,,0.00,Rainwise IP-100,2013-10-08 08:13:00,
2013-10-08 03:18:00,60.9,41.0,28.66,East,90,2.1,2.1,48,0.00,,,0.00,Rainwise IP-100,2013-10-08 08:18:00,
2013-10-08 03:23:00,60.9,41.0,28.66,East,90,1.9,2.0,48,0.00,,,0.00,Rainwise IP-100,2013-10-08 08:23:00,
2013-10-08 03:28:00,60.9,41.0,28.66,ESE,112,0.0,2.0,48,0.00,,,0.00,Rainwise IP-100,2013-10-08 08:28:00,
2013-10-08 03:33:00,60.8,40.0,28.66,ESE,112,1.9,2.0,48,0.00,,,0.00,Rainwise IP-100,2013-10-08 08:33:00,
2013-10-08 03:38:00,60.7,40.0,28.66,ESE,112,1.6,2.0,48,0.00,,,0.00,Rainwise IP-100,2013-10-08 08:38:00,
2013-10-08 03:43:00,60.6,40.0,28.65,ESE,112,1.4,3.0,48,0.00,,,0.00,Rainwise IP-100,2013-10-08 08:43:00,
2013-10-08 03:48:00,60.5,41.0,28.65,East,90,1.6,3.0,49,0.00,,,0.00,Rainwise IP-100,2013-10-08 08:48:00,
2013-10-08 03:53:00,60.2,40.0,28.65,ESE,112,2.3,3.0,49,0.00,,,0.00,Rainwise IP-100,2013-10-08 08:53:00,
2013-10-08 03:58:00,60.2,40.0,28.65,East,90,1.2,3.0,49,0.00,,,0.00,Rainwise IP-100,2013-10-08 08:58:00,
2013-10-08 04:03:00,60.1,40.0,28.65,East,90,1.2,3.0,49,0.00,,,0.00,Rainwise IP-100,2013-10-08 09:03:00,
2013-10-08 04:08:00,59.9,40.0,28.65,East,90,1.2,3.0,49,0.00,,,0.00,Rainwise IP-100,2013-10-08 09:08:00,
2013-10-08 04:13:00,59.8,41.0,28.65,ESE,112,3.0,3.0,50,0.00,,,0.00,Rainwise IP-100,2013-10-08 09:13:00,
2013-10-08 04:18:00,59.5,41.0,28.65,ESE,112,1.9,3.0,50,0.00,,,0.00,Rainwise IP-100,2013-10-08 09:18:00,
2013-10-08 04:23:00,59.4,41.0,28.65,ESE,112,2.1,3.0,50,0.00,,,0.00,Rainwise IP-100,2013-10-08 09:23:00,
2013-10-08 04:28:00,59.5,41.0,28.64,ESE,112,1.2,5.0,51,0.00,,,0.00,Rainwise IP-100,2013-10-08 09:28:00,
2013-10-08 04:33:00,59.9,42.0,28.64,ESE,112,2.6,5.0,51,0.00,,,0.00,Rainwise IP-100,2013-10-08 09:33:00,
2013-10-08 04:38:00,60.0,42.0,28.64,East,90,2.8,3.0,51,0.00,,,0.00,Rainwise IP-100,2013-10-08 09:38:00,
2013-10-08 04:43:00,59.8,41.0,28.64,East,90,1.9,3.0,51,0.00,,,0.00,Rainwise IP-100,2013-10-08 09:43:00,
2013-10-08 04:48:00,59.7,41.0,28.65,ESE,112,2.8,4.0,51,0.00,,,0.00,Rainwise IP-100,2013-10-08 09:48:00,
2013-10-08 04:53:00,59.6,41.0,28.64,ESE,112,0.0,4.0,51,0.00,,,0.00,Rainwise IP-100,2013-10-08 09:53:00,
2013-10-08 04:58:00,59.4,41.0,28.64,ESE,112,2.3,2.3,51,0.00,,,0.00,Rainwise IP-100,2013-10-08 09:58:00,
2013-10-08 05:03:00,59.2,41.0,28.64,ESE,112,1.4,3.0,51,0.00,,,0.00,Rainwise IP-100,2013-10-08 10:03:00,
2013-10-08 05:08:00,59.1,41.0,28.65,ESE,112,1.6,3.0,52,0.00,,,0.00,Rainwise IP-100,2013-10-08 10:08:00,
2013-10-08 05:13:00,59.1,41.0,28.64,ESE,112,3.0,3.0,52,0.00,,,0.00,Rainwise IP-100,2013-10-08 10:13:00,
2013-10-08 05:18:00,59.2,42.0,28.65,ESE,112,2.1,3.0,53,0.00,,,0.00,Rainwise IP-100,2013-10-08 10:18:00,
2013-10-08 05:23:00,59.0,42.0,28.65,ESE,112,3.3,4.0,53,0.00,,,0.00,Rainwise IP-100,2013-10-08 10:23:00,
2013-10-08 05:28:00,58.9,42.0,28.65,ESE,112,2.3,4.0,53,0.00,,,0.00,Rainwise IP-100,2013-10-08 10:28:00,
2013-10-08 05:33:00,58.9,42.0,28.65,ESE,112,1.9,5.0,53,0.00,,,0.00,Rainwise IP-100,2013-10-08 10:33:00,
2013-10-08 05:38:00,58.6,42.0,28.65,ESE,112,1.4,3.0,53,0.00,,,0.00,Rainwise IP-100,2013-10-08 10:38:00,
2013-10-08 05:43:00,58.3,41.0,28.65,ESE,112,1.4,3.0,53,0.00,,,0.00,Rainwise IP-100,2013-10-08 10:43:00,
2013-10-08 05:48:00,58.2,41.0,28.65,ESE,112,2.1,2.1,54,0.00,,,0.00,Rainwise IP-100,2013-10-08 10:48:00,
2013-10-08 05:53:00,58.2,41.0,28.65,ESE,112,2.1,3.0,54,0.00,,,0.00,Rainwise IP-100,2013-10-08 10:53:00,
2013-10-08 05:58:00,58.3,42.0,28.65,ESE,112,1.6,4.0,55,0.00,,,0.00,Rainwise IP-100,2013-10-08 10:58:00,
2013-10-08 06:03:00,58.3,42.0,28.65,ESE,112,1.4,3.0,55,0.00,,,0.00,Rainwise IP-100,2013-10-08 11:03:00,
2013-10-08 06:08:00,58.2,42.0,28.65,East,90,2.3,2.3,55,0.00,,,0.00,Rainwise IP-100,2013-10-08 11:08:00,
2013-10-08 06:13:00,58.0,42.0,28.65,East,90,1.4,2.0,55,0.00,,,0.00,Rainwise IP-100,2013-10-08 11:13:00,
2013-10-08 06:18:00,57.8,41.0,28.66,East,90,1.6,2.0,55,0.00,,,0.00,Rainwise IP-100,2013-10-08 11:18:00,
2013-10-08 06:23:00,57.6,42.0,28.65,East,90,0.0,2.0,56,0.00,,,0.00,Rainwise IP-100,2013-10-08 11:23:00,
2013-10-08 06:28:00,57.5,42.0,28.65,East,90,0.0,2.0,56,0.00,,,0.00,Rainwise IP-100,2013-10-08 11:28:00,
2013-10-08 06:33:00,57.2,41.0,28.66,East,90,1.6,2.0,56,0.00,,,0.00,Rainwise IP-100,2013-10-08 11:33:00,
2013-10-08 06:38:00,57.0,42.0,28.65,East,90,1.6,2.0,57,0.00,,,0.00,Rainwise IP-100,2013-10-08 11:38:00,
2013-10-08 06:43:00,56.6,41.0,28.66,East,90,0.0,1.0,57,0.00,,,0.00,Rainwise IP-100,2013-10-08 11:43:00,
2013-10-08 06:48:00,56.1,41.0,28.66,East,90,1.2,2.0,58,0.00,,,0.00,Rainwise IP-100,2013-10-08 11:48:00,
2013-10-08 06:53:00,55.6,42.0,28.66,East,90,0.0,1.0,59,0.00,,,0.00,Rainwise IP-100,2013-10-08 11:53:00,
2013-10-08 06:58:00,54.9,41.0,28.66,East,90,0.0,0.0,60,0.00,,,0.00,Rainwise IP-100,2013-10-08 11:58:00,
2013-10-08 07:03:00,54.4,41.0,28.66,East,90,0.0,0.0,61,0.00,,,0.00,Rainwise IP-100,2013-10-08 12:03:00,
2013-10-08 07:08:00,54.0,41.0,28.66,East,90,1.2,1.2,62,0.00,,,0.00,Rainwise IP-100,2013-10-08 12:08:00,
2013-10-08 07:13:00,54.2,41.0,28.66,East,90,0.0,1.0,63,0.00,,,0.00,Rainwise IP-100,2013-10-08 12:13:00,
2013-10-08 07:18:00,54.6,42.0,28.66,East,90,0.0,1.0,63,0.00,,,0.00,Rainwise IP-100,2013-10-08 12:18:00,
2013-10-08 07:23:00,54.7,42.0,28.66,East,90,0.0,1.0,63,0.00,,,0.00,Rainwise IP-100,2013-10-08 12:23:00,
2013-10-08 07:28:00,54.7,42.0,28.66,East,90,0.0,0.0,63,0.00,,,0.00,Rainwise IP-100,2013-10-08 12:28:00,
2013-10-08 07:33:00,54.6,42.0,28.66,East,90,0.0,1.0,62,0.00,,,0.00,Rainwise IP-100,2013-10-08 12:33:00,
2013-10-08 07:38:00,54.5,42.0,28.66,East,90,0.0,0.0,62,0.00,,,0.00,Rainwise IP-100,2013-10-08 12:38:00,
2013-10-08 07:43:00,54.6,42.0,28.66,East,90,0.0,1.0,62,0.00,,,0.00,Rainwise IP-100,2013-10-08 12:43:00,
2013-10-08 07:48:00,54.6,42.0,28.67,East,90,1.6,1.6,62,0.00,,,0.00,Rainwise IP-100,2013-10-08 12:48:00,
2013-10-08 07:53:00,54.8,42.0,28.66,East,90,0.0,2.0,62,0.00,,,0.00,Rainwise IP-100,2013-10-08 12:53:00,
2013-10-08 07:58:00,55.3,42.0,28.66,East,90,0.0,2.0,61,0.00,,,0.00,Rainwise IP-100,2013-10-08 12:58:00,
2013-10-08 08:03:00,55.9,42.0,28.66,East,90,0.0,2.0,61,0.00,,,0.00,Rainwise IP-100,2013-10-08 13:03:00,
2013-10-08 08:08:00,56.3,42.0,28.66,East,90,1.6,2.0,60,0.00,,,0.00,Rainwise IP-100,2013-10-08 13:08:00,
2013-10-08 08:13:00,56.7,42.0,28.67,ESE,112,0.0,2.0,59,0.00,,,0.00,Rainwise IP-100,2013-10-08 13:13:00,
2013-10-08 08:18:00,57.3,43.0,28.67,ESE,112,0.0,2.0,59,0.00,,,0.00,Rainwise IP-100,2013-10-08 13:18:00,
2013-10-08 08:23:00,57.7,43.0,28.67,ESE,112,1.6,2.0,58,0.00,,,0.00,Rainwise IP-100,2013-10-08 13:23:00,
2013-10-08 08:28:00,58.0,43.0,28.67,ESE,112,2.8,3.0,58,0.00,,,0.00,Rainwise IP-100,2013-10-08 13:28:00,
2013-10-08 08:33:00,58.4,43.0,28.67,SSE,157,1.6,4.0,57,0.00,,,0.00,Rainwise IP-100,2013-10-08 13:33:00,
2013-10-08 08:38:00,58.9,44.0,28.67,SSE,157,2.3,4.0,57,0.00,,,0.00,Rainwise IP-100,2013-10-08 13:38:00,
2013-10-08 08:43:00,59.4,44.0,28.67,SE,135,2.6,4.0,56,0.00,,,0.00,Rainwise IP-100,2013-10-08 13:43:00,
2013-10-08 08:48:00,60.0,44.0,28.67,SE,135,3.5,4.0,55,0.00,,,0.00,Rainwise IP-100,2013-10-08 13:48:00,
2013-10-08 08:53:00,60.6,44.0,28.67,SE,135,4.7,5.0,55,0.00,,,0.00,Rainwise IP-100,2013-10-08 13:53:00,
2013-10-08 08:58:00,61.3,44.0,28.67,SSE,157,3.0,5.0,54,0.00,,,0.00,Rainwise IP-100,2013-10-08 13:58:00,
2013-10-08 09:03:00,62.1,45.0,28.67,SSE,157,5.1,5.1,53,0.00,,,0.00,Rainwise IP-100,2013-10-08 14:03:00,
2013-10-08 09:08:00,62.7,44.0,28.67,ESE,112,2.8,6.0,51,0.00,,,0.00,Rainwise IP-100,2013-10-08 14:08:00,
2013-10-08 09:13:00,63.3,44.0,28.67,ESE,112,3.3,6.0,50,0.00,,,0.00,Rainwise IP-100,2013-10-08 14:13:00,
2013-10-08 09:18:00,64.0,44.0,28.67,SE,135,6.3,6.3,49,0.00,,,0.00,Rainwise IP-100,2013-10-08 14:18:00,
2013-10-08 09:23:00,64.7,44.0,28.67,SSE,157,3.3,6.0,48,0.00,,,0.00,Rainwise IP-100,2013-10-08 14:23:00,
2013-10-08 09:28:00,65.3,44.0,28.67,SSE,157,3.3,7.0,47,0.00,,,0.00,Rainwise IP-100,2013-10-08 14:28:00,
2013-10-08 09:33:00,65.6,44.0,28.67,SE,135,4.2,7.0,46,0.00,,,0.00,Rainwise IP-100,2013-10-08 14:33:00,
2013-10-08 09:38:00,65.9,44.0,28.67,SE,135,5.8,7.0,45,0.00,,,0.00,Rainwise IP-100,2013-10-08 14:38:00,
2013-10-08 09:43:00,66.4,44.0,28.67,SE,135,7.7,8.0,44,0.00,,,0.00,Rainwise IP-100,2013-10-08 14:43:00,
2013-10-08 09:48:00,67.2,44.0,28.66,SSE,157,2.8,9.0,43,0.00,,,0.00,Rainwise IP-100,2013-10-08 14:48:00,
2013-10-08 09:53:00,67.8,44.0,28.67,SE,135,2.8,10.0,42,0.00,,,0.00,Rainwise IP-100,2013-10-08 14:53:00,
2013-10-08 09:58:00,68.1,44.0,28.67,South,180,5.8,11.0,42,0.00,,,0.00,Rainwise IP-100,2013-10-08 14:58:00,
2013-10-08 10:03:00,68.4,44.0,28.66,SE,135,4.0,9.0,41,0.00,,,0.00,Rainwise IP-100,2013-10-08 15:03:00,
2013-10-08 10:08:00,68.9,44.0,28.67,SSW,202,5.4,9.0,41,0.00,,,0.00,Rainwise IP-100,2013-10-08 15:08:00,
2013-10-08 10:13:00,69.5,45.0,28.66,SSE,157,6.5,7.0,41,0.00,,,0.00,Rainwise IP-100,2013-10-08 15:13:00,
2013-10-08 10:18:00,69.9,45.0,28.67,SSW,202,3.7,8.0,40,0.00,,,0.00,Rainwise IP-100,2013-10-08 15:18:00,
2013-10-08 10:23:00,70.1,45.0,28.67,SSW,202,3.7,9.0,40,0.00,,,0.00,Rainwise IP-100,2013-10-08 15:23:00,
2013-10-08 10:28:00,70.5,45.0,28.67,SSE,157,5.1,8.0,40,0.00,,,0.00,Rainwise IP-100,2013-10-08 15:28:00,
2013-10-08 10:33:00,71.1,45.0,28.67,SSE,157,4.7,10.0,39,0.00,,,0.00,Rainwise IP-100,2013-10-08 15:33:00,
2013-10-08 10:38:00,71.9,46.0,28.67,SSW,202,4.7,7.0,39,0.00,,,0.00,Rainwise IP-100,2013-10-08 15:38:00,
2013-10-08 10:43:00,72.8,45.0,28.67,SW,225,3.7,9.0,37,0.00,,,0.00,Rainwise IP-100,2013-10-08 15:43:00,
2013-10-08 10:48:00,73.1,45.0,28.66,South,180,6.8,10.0,36,0.00,,,0.00,Rainwise IP-100,2013-10-08 15:48:00,
2013-10-08 10:52:00,73.3,45.0,28.66,SSE,157,3.0,10.0,36,0.00,,,0.00,Rainwise IP-100,2013-10-08 15:52:00,
2013-10-08 10:57:00,73.4,44.0,28.67,WSW,247,4.7,12.0,35,0.00,,,0.00,Rainwise IP-100,2013-10-08 15:57:00,
2013-10-08 11:02:00,73.8,44.0,28.66,SSE,157,3.3,8.0,35,0.00,,,0.00,Rainwise IP-100,2013-10-08 16:02:00,
2013-10-08 11:07:00,74.5,45.0,28.66,SSE,157,7.5,8.0,35,0.00,,,0.00,Rainwise IP-100,2013-10-08 16:07:00,
2013-10-08 11:12:00,74.7,45.0,28.66,SSW,202,3.3,10.0,34,0.00,,,0.00,Rainwise IP-100,2013-10-08 16:12:00,
2013-10-08 11:17:00,74.9,45.0,28.66,South,180,4.4,9.0,34,0.00,,,0.00,Rainwise IP-100,2013-10-08 16:17:00,
2013-10-08 11:22:00,75.2,45.0,28.65,SSE,157,7.0,11.0,34,0.00,,,0.00,Rainwise IP-100,2013-10-08 16:22:00,
2013-10-08 11:27:00,75.3,44.0,28.65,SE,135,5.6,8.0,33,0.00,,,0.00,Rainwise IP-100,2013-10-08 16:27:00,
2013-10-08 11:32:00,75.4,44.0,28.66,South,180,4.7,8.0,33,0.00,,,0.00,Rainwise IP-100,2013-10-08 16:32:00,
2013-10-08 11:37:00,75.9,45.0,28.65,SSE,157,1.6,8.0,33,0.00,,,0.00,Rainwise IP-100,2013-10-08 16:37:00,
2013-10-08 11:42:00,76.7,45.0,28.64,SSE,157,4.2,13.0,32,0.00,,,0.00,Rainwise IP-100,2013-10-08 16:42:00,
2013-10-08 11:47:00,77.2,44.0,28.65,WSW,247,2.8,8.0,31,0.00,,,0.00,Rainwise IP-100,2013-10-08 16:47:00,
2013-10-08 11:52:00,77.5,45.0,28.65,SSE,157,4.7,10.0,31,0.00,,,0.00,Rainwise IP-100,2013-10-08 16:52:00,
2013-10-08 11:57:00,77.9,45.0,28.64,WSW,247,2.3,13.0,31,0.00,,,0.00,Rainwise IP-100,2013-10-08 16:57:00,
2013-10-08 12:02:00,78.3,44.0,28.64,SSE,157,4.4,9.0,30,0.00,,,0.00,Rainwise IP-100,2013-10-08 17:02:00,
2013-10-08 12:07:00,78.4,44.0,28.64,SSW,202,4.4,11.0,30,0.00,,,0.00,Rainwise IP-100,2013-10-08 17:07:00,
2013-10-08 12:12:00,78.2,44.0,28.64,SE,135,7.5,9.0,30,0.00,,,0.00,Rainwise IP-100,2013-10-08 17:12:00,
2013-10-08 12:17:00,78.3,44.0,28.64,SSE,157,7.2,10.0,30,0.00,,,0.00,Rainwise IP-100,2013-10-08 17:17:00,
2013-10-08 12:22:00,78.5,45.0,28.64,SSE,157,0.0,9.0,30,0.00,,,0.00,Rainwise IP-100,2013-10-08 17:22:00,
2013-10-08 12:27:00,79.0,44.0,28.64,South,180,7.5,9.0,29,0.00,,,0.00,Rainwise IP-100,2013-10-08 17:27:00,
2013-10-08 12:32:00,79.5,45.0,28.63,SSW,202,4.0,11.0,29,0.00,,,0.00,Rainwise IP-100,2013-10-08 17:32:00,
2013-10-08 12:37:00,79.7,44.0,28.63,SSW,202,2.6,10.0,28,0.00,,,0.00,Rainwise IP-100,2013-10-08 17:37:00,
2013-10-08 12:42:00,80.2,44.0,28.63,SW,225,4.9,10.0,28,0.00,,,0.00,Rainwise IP-100,2013-10-08 17:42:00,
2013-10-08 12:47:00,80.7,43.0,28.63,SSW,202,3.3,11.0,26,0.00,,,0.00,Rainwise IP-100,2013-10-08 17:47:00,
2013-10-08 12:52:00,80.9,42.0,28.62,SSE,157,8.6,11.0,25,0.00,,,0.00,Rainwise IP-100,2013-10-08 17:52:00,
2013-10-08 12:57:00,81.2,42.0,28.62,South,180,4.4,11.0,25,0.00,,,0.00,Rainwise IP-100,2013-10-08 17:57:00,
2013-10-08 13:02:00,81.4,42.0,28.62,SSE,157,3.0,16.0,25,0.00,,,0.00,Rainwise IP-100,2013-10-08 18:02:00,
2013-10-08 13:07:00,81.6,43.0,28.62,SSW,202,2.6,8.0,26,0.00,,,0.00,Rainwise IP-100,2013-10-08 18:07:00,
2013-10-08 13:12:00,81.9,43.0,28.62,SSW,202,5.4,15.0,25,0.00,,,0.00,Rainwise IP-100,2013-10-08 18:12:00,
2013-10-08 13:17:00,82.1,41.0,28.61,SSE,157,6.3,8.0,24,0.00,,,0.00,Rainwise IP-100,2013-10-08 18:17:00,
2013-10-08 13:22:00,81.9,40.0,28.61,WSW,247,4.4,10.0,23,0.00,,,0.00,Rainwise IP-100,2013-10-08 18:22:00,
2013-10-08 13:27:00,81.8,40.0,28.61,SSW,202,3.0,12.0,23,0.00,,,0.00,Rainwise IP-100,2013-10-08 18:27:00,
2013-10-08 13:32:00,81.7,40.0,28.61,South,180,4.4,11.0,23,0.00,,,0.00,Rainwise IP-100,2013-10-08 18:32:00,
2013-10-08 13:37:00,81.5,41.0,28.61,SSE,157,9.3,9.3,24,0.00,,,0.00,Rainwise IP-100,2013-10-08 18:37:00,
2013-10-08 13:42:00,81.9,41.0,28.61,SSE,157,4.7,11.0,24,0.00,,,0.00,Rainwise IP-100,2013-10-08 18:42:00,
2013-10-08 13:47:00,82.1,41.0,28.60,SSE,157,5.8,11.0,24,0.00,,,0.00,Rainwise IP-100,2013-10-08 18:47:00,
2013-10-08 13:52:00,82.2,42.0,28.60,SE,135,5.6,10.0,24,0.00,,,0.00,Rainwise IP-100,2013-10-08 18:52:00,
2013-10-08 13:57:00,82.2,42.0,28.59,East,90,4.9,9.0,24,0.00,,,0.00,Rainwise IP-100,2013-10-08 18:57:00,
2013-10-08 14:02:00,82.2,42.0,28.60,SSE,157,6.5,10.0,24,0.00,,,0.00,Rainwise IP-100,2013-10-08 19:02:00,
2013-10-08 14:07:00,82.4,42.0,28.59,SSE,157,5.1,11.0,24,0.00,,,0.00,Rainwise IP-100,2013-10-08 19:07:00,
2013-10-08 14:12:00,82.6,42.0,28.59,ESE,112,2.8,10.0,24,0.00,,,0.00,Rainwise IP-100,2013-10-08 19:12:00,
2013-10-08 14:17:00,82.6,42.0,28.59,WSW,247,0.0,9.0,24,0.00,,,0.00,Rainwise IP-100,2013-10-08 19:17:00,
2013-10-08 14:22:00,82.8,42.0,28.58,SSE,157,5.1,12.0,24,0.00,,,0.00,Rainwise IP-100,2013-10-08 19:22:00,
2013-10-08 14:27:00,83.4,42.0,28.58,SSE,157,4.7,11.0,23,0.00,,,0.00,Rainwise IP-100,2013-10-08 19:27:00,
2013-10-08 14:32:00,83.4,42.0,28.58,SSE,157,6.1,12.0,23,0.00,,,0.00,Rainwise IP-100,2013-10-08 19:32:00,
2013-10-08 14:37:00,82.9,41.0,28.58,SSE,157,6.5,15.0,23,0.00,,,0.00,Rainwise IP-100,2013-10-08 19:37:00,
2013-10-08 14:42:00,82.9,41.0,28.58,SSE,157,9.3,10.0,23,0.00,,,0.00,Rainwise IP-100,2013-10-08 19:42:00,
2013-10-08 14:47:00,83.4,42.0,28.58,ESE,112,3.3,11.0,23,0.00,,,0.00,Rainwise IP-100,2013-10-08 19:47:00,
2013-10-08 14:52:00,83.4,41.0,28.57,SSW,202,3.5,6.0,22,0.00,,,0.00,Rainwise IP-100,2013-10-08 19:52:00,
2013-10-08 14:57:00,83.8,41.0,28.58,South,180,6.3,11.0,22,0.00,,,0.00,Rainwise IP-100,2013-10-08 19:57:00,
2013-10-08 15:02:00,84.0,41.0,28.57,SSW,202,2.8,13.0,22,0.00,,,0.00,Rainwise IP-100,2013-10-08 20:02:00,
2013-10-08 15:07:00,83.7,42.0,28.57,SE,135,5.4,8.0,23,0.00,,,0.00,Rainwise IP-100,2013-10-08 20:07:00,
2013-10-08 15:12:00,83.4,42.0,28.56,SSW,202,4.9,9.0,23,0.00,,,0.00,Rainwise IP-100,2013-10-08 20:12:00,
2013-10-08 15:17:00,83.7,42.0,28.56,SSE,157,6.3,10.0,23,0.00,,,0.00,Rainwise IP-100,2013-10-08 20:17:00,
2013-10-08 15:22:00,84.4,42.0,28.56,South,180,5.1,13.0,23,0.00,,,0.00,Rainwise IP-100,2013-10-08 20:22:00,
2013-10-08 15:27:00,84.4,41.0,28.56,SSE,157,10.7,12.0,22,0.00,,,0.00,Rainwise IP-100,2013-10-08 20:27:00,
2013-10-08 15:32:00,84.2,41.0,28.56,SW,225,4.0,10.0,22,0.00,,,0.00,Rainwise IP-100,2013-10-08 20:32:00,
2013-10-08 15:37:00,83.9,41.0,28.56,ESE,112,4.4,14.0,22,0.00,,,0.00,Rainwise IP-100,2013-10-08 20:37:00,
2013-10-08 15:42:00,83.8,41.0,28.56,WSW,247,6.5,13.0,22,0.00,,,0.00,Rainwise IP-100,2013-10-08 20:42:00,
2013-10-08 15:47:00,84.2,41.0,28.56,East,90,2.6,8.0,22,0.00,,,0.00,Rainwise IP-100,2013-10-08 20:47:00,
2013-10-08 15:52:00,84.5,41.0,28.56,South,180,5.8,9.0,22,0.00,,,0.00,Rainwise IP-100,2013-10-08 20:52:00,
2013-10-08 15:57:00,84.6,41.0,28.56,SSW,202,4.7,11.0,22,0.00,,,0.00,Rainwise IP-100,2013-10-08 20:57:00,
2013-10-08 16:02:00,84.5,41.0,28.55,ESE,112,4.9,8.0,22,0.00,,,0.00,Rainwise IP-100,2013-10-08 21:02:00,
2013-10-08 16:07:00,84.1,41.0,28.55,ESE,112,2.6,8.0,22,0.00,,,0.00,Rainwise IP-100,2013-10-08 21:07:00,
2013-10-08 16:12:00,83.8,41.0,28.55,South,180,8.2,11.0,22,0.00,,,0.00,Rainwise IP-100,2013-10-08 21:12:00,
2013-10-08 16:17:00,84.3,42.0,28.56,South,180,4.2,10.0,23,0.00,,,0.00,Rainwise IP-100,2013-10-08 21:17:00,
2013-10-08 16:22:00,84.8,43.0,28.56,SSE,157,7.2,11.0,23,0.00,,,0.00,Rainwise IP-100,2013-10-08 21:22:00,
2013-10-08 16:27:00,84.2,42.0,28.56,South,180,5.6,11.0,23,0.00,,,0.00,Rainwise IP-100,2013-10-08 21:27:00,
2013-10-08 16:32:00,83.7,42.0,28.56,SSE,157,6.1,11.0,23,0.00,,,0.00,Rainwise IP-100,2013-10-08 21:32:00,
2013-10-08 16:37:00,83.8,42.0,28.55,SE,135,8.2,9.0,23,0.00,,,0.00,Rainwise IP-100,2013-10-08 21:37:00,
2013-10-08 16:42:00,84.1,42.0,28.56,SSW,202,7.9,9.0,23,0.00,,,0.00,Rainwise IP-100,2013-10-08 21:42:00,
2013-10-08 16:47:00,84.1,42.0,28.55,SSW,202,4.9,11.0,23,0.00,,,0.00,Rainwise IP-100,2013-10-08 21:47:00,
2013-10-08 16:52:00,84.0,42.0,28.55,SSW,202,2.6,10.0,23,0.00,,,0.00,Rainwise IP-100,2013-10-08 21:52:00,
2013-10-08 16:53:00,84.0,42.0,28.55,SSW,202,2.6,10.0,23,0.00,,,0.00,Rainwise IP-100,2013-10-08 21:53:00,
2013-10-08 16:58:00,83.8,42.0,28.55,East,90,6.1,10.0,23,0.00,,,0.00,Rainwise IP-100,2013-10-08 21:58:00,
2013-10-08 17:03:00,83.6,43.0,28.55,SSE,157,6.5,9.0,24,0.00,,,0.00,Rainwise IP-100,2013-10-08 22:03:00,
2013-10-08 17:08:00,83.6,43.0,28.55,SSE,157,6.5,7.0,24,0.00,,,0.00,Rainwise IP-100,2013-10-08 22:08:00,
2013-10-08 17:13:00,83.7,43.0,28.55,SSE,157,7.2,13.0,24,0.00,,,0.00,Rainwise IP-100,2013-10-08 22:13:00,
2013-10-08 17:18:00,83.6,43.0,28.55,ESE,112,3.7,10.0,24,0.00,,,0.00,Rainwise IP-100,2013-10-08 22:18:00,
2013-10-08 17:23:00,83.4,44.0,28.54,SE,135,2.8,9.0,25,0.00,,,0.00,Rainwise IP-100,2013-10-08 22:23:00,
2013-10-08 17:28:00,83.2,44.0,28.54,ESE,112,6.3,9.0,25,0.00,,,0.00,Rainwise IP-100,2013-10-08 22:28:00,
2013-10-08 17:33:00,83.1,44.0,28.54,SSE,157,8.2,11.0,25,0.00,,,0.00,Rainwise IP-100,2013-10-08 22:33:00,
2013-10-08 17:38:00,83.1,44.0,28.54,SSE,157,1.2,10.0,25,0.00,,,0.00,Rainwise IP-100,2013-10-08 22:38:00,
2013-10-08 17:43:00,83.4,44.0,28.54,South,180,6.8,6.8,25,0.00,,,0.00,Rainwise IP-100,2013-10-08 22:43:00,
2013-10-08 17:48:00,83.4,44.0,28.54,South,180,4.4,8.0,25,0.00,,,0.00,Rainwise IP-100,2013-10-08 22:48:00,
2013-10-08 17:53:00,83.5,44.0,28.54,SSW,202,5.1,7.0,25,0.00,,,0.00,Rainwise IP-100,2013-10-08 22:53:00,
2013-10-08 17:58:00,83.3,45.0,28.54,SSE,157,9.8,9.8,26,0.00,,,0.00,Rainwise IP-100,2013-10-08 22:58:00,
2013-10-08 18:03:00,82.6,44.0,28.54,ESE,112,4.9,9.0,26,0.00,,,0.00,Rainwise IP-100,2013-10-08 23:03:00,
2013-10-08 18:08:00,82.0,45.0,28.54,SSE,157,3.5,11.0,27,0.00,,,0.00,Rainwise IP-100,2013-10-08 23:08:00,
2013-10-08 18:13:00,81.6,44.0,28.54,SE,135,4.0,10.0,27,0.00,,,0.00,Rainwise IP-100,2013-10-08 23:13:00,
2013-10-08 18:18:00,81.5,44.0,28.54,SSE,157,3.5,8.0,27,0.00,,,0.00,Rainwise IP-100,2013-10-08 23:18:00,
2013-10-08 18:23:00,81.6,44.0,28.54,SE,135,3.0,11.0,27,0.00,,,0.00,Rainwise IP-100,2013-10-08 23:23:00,
2013-10-08 18:28:00,81.5,44.0,28.54,SE,135,3.3,7.0,27,0.00,,,0.00,Rainwise IP-100,2013-10-08 23:28:00,
2013-10-08 18:33:00,81.4,44.0,28.55,SE,135,3.5,7.0,27,0.00,,,0.00,Rainwise IP-100,2013-10-08 23:33:00,
2013-10-08 18:38:00,81.3,44.0,28.54,SSE,157,2.3,8.0,27,0.00,,,0.00,Rainwise IP-100,2013-10-08 23:38:00,
2013-10-08 18:43:00,81.0,44.0,28.54,SSE,157,2.6,7.0,27,0.00,,,0.00,Rainwise IP-100,2013-10-08 23:43:00,
2013-10-08 18:48:00,80.7,44.0,28.54,SE,135,5.1,5.1,27,0.00,,,0.00,Rainwise IP-100,2013-10-08 23:48:00,
2013-10-08 18:53:00,80.3,44.0,28.54,ESE,112,5.4,9.0,28,0.00,,,0.00,Rainwise IP-100,2013-10-08 23:53:00,
2013-10-08 18:58:00,79.8,44.0,28.54,SSE,157,1.9,7.0,28,0.00,,,0.00,Rainwise IP-100,2013-10-08 23:58:00,
2013-10-08 19:03:00,79.2,44.0,28.54,SE,135,4.9,7.0,29,0.00,,,0.00,Rainwise IP-100,2013-10-09 00:03:00,
2013-10-08 19:08:00,78.6,44.0,28.54,SE,135,2.8,6.0,29,0.00,,,0.00,Rainwise IP-100,2013-10-09 00:08:00,
2013-10-08 19:13:00,78.1,44.0,28.54,SE,135,2.3,5.0,30,0.00,,,0.00,Rainwise IP-100,2013-10-09 00:13:00,
2013-10-08 19:18:00,77.6,45.0,28.54,SSE,157,3.0,8.0,31,0.00,,,0.00,Rainwise IP-100,2013-10-09 00:18:00,
2013-10-08 19:23:00,77.1,44.0,28.55,ESE,112,4.2,6.0,31,0.00,,,0.00,Rainwise IP-100,2013-10-09 00:23:00,
2013-10-08 19:28:00,76.8,45.0,28.55,SE,135,1.9,6.0,32,0.00,,,0.00,Rainwise IP-100,2013-10-09 00:28:00,
2013-10-08 19:33:00,76.5,44.0,28.54,SE,135,6.1,6.1,32,0.00,,,0.00,Rainwise IP-100,2013-10-09 00:33:00,
2013-10-08 19:38:00,76.1,44.0,28.54,East,90,4.4,7.0,32,0.00,,,0.00,Rainwise IP-100,2013-10-09 00:38:00,
2013-10-08 19:43:00,75.8,43.0,28.55,ESE,112,1.4,5.0,32,0.00,,,0.00,Rainwise IP-100,2013-10-09 00:43:00,
2013-10-08 19:48:00,75.3,44.0,28.55,SE,135,3.3,5.0,33,0.00,,,0.00,Rainwise IP-100,2013-10-09 00:48:00,
2013-10-08 19:53:00,74.8,44.0,28.55,ESE,112,2.1,4.0,33,0.00,,,0.00,Rainwise IP-100,2013-10-09 00:53:00,
2013-10-08 19:58:00,74.4,44.0,28.55,ESE,112,0.0,4.0,34,0.00,,,0.00,Rainwise IP-100,2013-10-09 00:58:00,
2013-10-08 20:03:00,74.1,44.0,28.55,ESE,112,2.6,6.0,34,0.00,,,0.00,Rainwise IP-100,2013-10-09 01:03:00,
2013-10-08 20:08:00,73.9,45.0,28.55,SE,135,2.3,4.0,35,0.00,,,0.00,Rainwise IP-100,2013-10-09 01:08:00,
2013-10-08 20:13:00,73.5,44.0,28.56,ESE,112,1.4,4.0,35,0.00,,,0.00,Rainwise IP-100,2013-10-09 01:13:00,
2013-10-08 20:18:00,73.1,44.0,28.56,ESE,112,4.0,4.0,35,0.00,,,0.00,Rainwise IP-100,2013-10-09 01:18:00,
2013-10-08 20:23:00,72.7,44.0,28.56,SSE,157,0.0,4.0,36,0.00,,,0.00,Rainwise IP-100,2013-10-09 01:23:00,
2013-10-08 20:28:00,72.4,44.0,28.56,ESE,112,1.4,3.0,36,0.00,,,0.00,Rainwise IP-100,2013-10-09 01:28:00,
2013-10-08 20:33:00,72.0,44.0,28.56,East,90,1.4,4.0,37,0.00,,,0.00,Rainwise IP-100,2013-10-09 01:33:00,
2013-10-08 20:38:00,71.6,44.0,28.56,ESE,112,0.0,2.0,37,0.00,,,0.00,Rainwise IP-100,2013-10-09 01:38:00,
2013-10-08 20:43:00,71.2,44.0,28.56,ESE,112,2.3,2.3,38,0.00,,,0.00,Rainwise IP-100,2013-10-09 01:43:00,
2013-10-08 20:48:00,70.9,44.0,28.56,ESE,112,2.1,2.1,38,0.00,,,0.00,Rainwise IP-100,2013-10-09 01:48:00,
2013-10-08 20:53:00,70.7,44.0,28.56,ESE,112,0.0,3.0,39,0.00,,,0.00,Rainwise IP-100,2013-10-09 01:53:00,
2013-10-08 20:58:00,70.6,44.0,28.56,ESE,112,2.6,4.0,39,0.00,,,0.00,Rainwise IP-100,2013-10-09 01:58:00,
2013-10-08 21:03:00,70.5,44.0,28.56,SE,135,2.1,3.0,39,0.00,,,0.00,Rainwise IP-100,2013-10-09 02:03:00,
2013-10-08 21:08:00,70.3,45.0,28.56,NNE,22,2.6,5.0,40,0.00,,,0.00,Rainwise IP-100,2013-10-09 02:08:00,
2013-10-08 21:13:00,70.4,45.0,28.56,SE,135,2.1,7.0,40,0.00,,,0.00,Rainwise IP-100,2013-10-09 02:13:00,
2013-10-08 21:18:00,70.5,45.0,28.57,ESE,112,2.1,5.0,40,0.00,,,0.00,Rainwise IP-100,2013-10-09 02:18:00,
2013-10-08 21:23:00,70.5,46.0,28.56,ESE,112,5.4,8.0,41,0.00,,,0.00,Rainwise IP-100,2013-10-09 02:23:00,
2013-10-08 21:28:00,70.5,46.0,28.57,ESE,112,5.8,9.0,41,0.00,,,0.00,Rainwise IP-100,2013-10-09 02:28:00,
2013-10-08 21:33:00,70.5,46.0,28.57,ESE,112,1.6,7.0,41,0.00,,,0.00,Rainwise IP-100,2013-10-09 02:33:00,
2013-10-08 21:38:00,70.4,46.0,28.57,ESE,112,1.4,8.0,41,0.00,,,0.00,Rainwise IP-100,2013-10-09 02:38:00,
2013-10-08 21:43:00,70.4,46.0,28.57,SSE,157,2.3,7.0,41,0.00,,,0.00,Rainwise IP-100,2013-10-09 02:43:00,
2013-10-08 21:48:00,70.2,46.0,28.57,ESE,112,3.0,7.0,42,0.00,,,0.00,Rainwise IP-100,2013-10-09 02:48:00,
2013-10-08 21:53:00,69.9,46.0,28.57,East,90,4.0,7.0,42,0.00,,,0.00,Rainwise IP-100,2013-10-09 02:53:00,
2013-10-08 21:58:00,69.7,46.0,28.57,SE,135,5.1,7.0,42,0.00,,,0.00,Rainwise IP-100,2013-10-09 02:58:00,
2013-10-08 22:03:00,69.5,46.0,28.57,ESE,112,2.8,10.0,43,0.00,,,0.00,Rainwise IP-100,2013-10-09 03:03:00,
2013-10-08 22:08:00,69.4,46.0,28.57,ESE,112,5.4,8.0,43,0.00,,,0.00,Rainwise IP-100,2013-10-09 03:08:00,
2013-10-08 22:13:00,69.3,46.0,28.57,SE,135,5.1,10.0,43,0.00,,,0.00,Rainwise IP-100,2013-10-09 03:13:00,
2013-10-08 22:18:00,69.1,46.0,28.57,ESE,112,4.0,7.0,44,0.00,,,0.00,Rainwise IP-100,2013-10-09 03:18:00,
2013-10-08 22:23:00,68.8,46.0,28.57,ESE,112,1.4,6.0,44,0.00,,,0.00,Rainwise IP-100,2013-10-09 03:23:00,
2013-10-08 22:28:00,68.8,47.0,28.57,SE,135,3.3,7.0,45,0.00,,,0.00,Rainwise IP-100,2013-10-09 03:28:00,
2013-10-08 22:33:00,68.6,47.0,28.57,SE,135,2.3,6.0,45,0.00,,,0.00,Rainwise IP-100,2013-10-09 03:33:00,
2013-10-08 22:38:00,68.2,46.0,28.57,ESE,112,2.3,6.0,45,0.00,,,0.00,Rainwise IP-100,2013-10-09 03:38:00,
2013-10-08 22:43:00,68.0,46.0,28.57,East,90,1.2,8.0,45,0.00,,,0.00,Rainwise IP-100,2013-10-09 03:43:00,
2013-10-08 22:48:00,67.7,46.0,28.57,SE,135,3.3,7.0,46,0.00,,,0.00,Rainwise IP-100,2013-10-09 03:48:00,
2013-10-08 22:53:00,67.5,46.0,28.58,ESE,112,4.7,7.0,46,0.00,,,0.00,Rainwise IP-100,2013-10-09 03:53:00,
2013-10-08 22:58:00,67.4,47.0,28.57,East,90,3.0,7.0,47,0.00,,,0.00,Rainwise IP-100,2013-10-09 03:58:00,
2013-10-08 23:01:00,67.3,46.0,28.57,ESE,112,0.0,7.0,47,0.00,,,0.00,Rainwise IP-100,2013-10-09 04:01:00,
2013-10-08 23:06:00,67.1,47.0,28.57,ESE,112,2.6,7.0,48,0.00,,,0.00,Rainwise IP-100,2013-10-09 04:06:00,
2013-10-08 23:11:00,66.8,47.0,28.58,SE,135,3.0,6.0,48,0.00,,,0.00,Rainwise IP-100,2013-10-09 04:11:00,
2013-10-08 23:16:00,66.5,47.0,28.58,ESE,112,3.3,5.0,49,0.00,,,0.00,Rainwise IP-100,2013-10-09 04:16:00,
2013-10-08 23:21:00,66.3,47.0,28.57,SE,135,4.0,5.0,49,0.00,,,0.00,Rainwise IP-100,2013-10-09 04:21:00,
2013-10-08 23:26:00,66.2,47.0,28.57,SE,135,4.9,5.0,50,0.00,,,0.00,Rainwise IP-100,2013-10-09 04:26:00,
2013-10-08 23:31:00,66.1,47.0,28.57,ESE,112,1.4,5.0,50,0.00,,,0.00,Rainwise IP-100,2013-10-09 04:31:00,
2013-10-08 23:36:00,65.8,47.0,28.57,ESE,112,2.3,4.0,50,0.00,,,0.00,Rainwise IP-100,2013-10-09 04:36:00,
2013-10-08 23:41:00,65.6,47.0,28.57,ESE,112,4.2,5.0,51,0.00,,,0.00,Rainwise IP-100,2013-10-09 04:41:00,
2013-10-08 23:46:00,65.4,47.0,28.57,SE,135,1.4,5.0,51,0.00,,,0.00,Rainwise IP-100,2013-10-09 04:46:00,
2013-10-08 23:51:00,65.2,47.0,28.57,SE,135,3.0,4.0,51,0.00,,,0.00,Rainwise IP-100,2013-10-09 04:51:00,
2013-10-08 23:56:00,65.1,47.0,28.57,ESE,112,0.0,5.0,52,0.00,,,0.00,Rainwise IP-100,2013-10-09 04:56:00,